• In Czech Republic
  • List of Countries
  • For 7 days
  • Water Temperature
  • Satellite Maps
  • Weather Map
  • Weather Widgets
  • user-avatar
    Login

    Hourly Weather Mazari Sharif

    Today, 17 October, Tuesday

    Time Temperature Precipitation Wind Pressure Humidity
    00:00 +16°C° 0 mm 3 mps 653 mmHg 32%
    01:00 +16°C° 0 mm 3 mps 653 mmHg 32%
    02:00 +14°C° 0 mm 3 mps 653 mmHg 30%
    03:00 +14°C° 0 mm 3 mps 653 mmHg 29%
    04:00 +14°C° 0 mm 3 mps 652 mmHg 27%
    05:00 +16°C° 0 mm 3 mps 653 mmHg 24%
    06:00 +17°C° 0 mm 3 mps 653 mmHg 21%
    07:00 +18°C° 0 mm 3 mps 653 mmHg 19%
    08:00 +20°C° 0 mm 3 mps 654 mmHg 16%
    09:00 +24°C° 0 mm 3 mps 654 mmHg 13%
    10:00 +26°C° 0 mm 3 mps 655 mmHg 10%
    11:00 +27°C° 0 mm 3 mps 655 mmHg 9%
    12:00 +28°C° 0 mm 3 mps 654 mmHg 8%
    13:00 +29°C° 0 mm 3 mps 654 mmHg 8%
    14:00 +28°C° 0 mm 3 mps 654 mmHg 8%
    15:00 +28°C° 0 mm 3 mps 653 mmHg 8%
    16:00 +27°C° 0 mm 3 mps 653 mmHg 8%
    17:00 +25°C° 0 mm 5 mps 653 mmHg 13%
    18:00 +21°C° 0 mm 7 mps 653 mmHg 18%
    19:00 +18°C° 0 mm 8 mps 654 mmHg 23%
    20:00 +16°C° 0 mm 8 mps 654 mmHg 35%
    21:00 +14°C° 0 mm 7 mps 654 mmHg 48%
    22:00 +11°C° 0 mm 7 mps 654 mmHg 60%
    23:00 +10°C° 0 mm 7 mps 655 mmHg 63%

    Tomorrow, 18 October, Wednesday

    Time Temperature Precipitation Wind Pressure Humidity
    00:00 +9°C° 0 mm 6 mps 655 mmHg 67%
    01:00 +8°C° 0 mm 6 mps 655 mmHg 70%
    02:00 +8°C° 0 mm 5 mps 655 mmHg 70%
    03:00 +7°C° 0 mm 5 mps 656 mmHg 70%
    04:00 +6°C° 0 mm 4 mps 656 mmHg 70%
    05:00 +6°C° 0 mm 4 mps 657 mmHg 68%
    06:00 +8°C° 0 mm 3 mps 657 mmHg 67%
    07:00 +8°C° 0 mm 3 mps 658 mmHg 65%
    08:00 +9°C° 0 mm 3 mps 659 mmHg 57%
    09:00 +10°C° 0 mm 3 mps 659 mmHg 50%
    10:00 +12°C° 0 mm 3 mps 660 mmHg 43%
    11:00 +12°C° 0 mm 4 mps 660 mmHg 39%
    12:00 +13°C° 0 mm 4 mps 660 mmHg 36%
    13:00 +14°C° 0 mm 4 mps 659 mmHg 32%
    14:00 +13°C° 0 mm 4 mps 659 mmHg 32%
    15:00 +13°C° 0 mm 4 mps 659 mmHg 32%
    16:00 +13°C° 0 mm 3 mps 659 mmHg 32%
    17:00 +12°C° 0 mm 3 mps 659 mmHg 34%
    18:00 +12°C° 0 mm 2 mps 659 mmHg 36%
    19:00 +9°C° 0 mm 2 mps 659 mmHg 38%
    20:00 +9°C° 0 mm 2 mps 659 mmHg 40%
    21:00 +9°C° 0 mm 2 mps 659 mmHg 41%
    22:00 +8°C° 0 mm 2 mps 659 mmHg 42%
    23:00 +8°C° 0 mm 2 mps 659 mmHg 43%

    Day after tomorrow, 19 October, Thursday

    Time Temperature Precipitation Wind Pressure Humidity
    00:00 +7°C° 0 mm 2 mps 659 mmHg 44%
    01:00 +7°C° 0 mm 2 mps 659 mmHg 46%
    02:00 +7°C° 0 mm 2 mps 659 mmHg 47%
    03:00 +6°C° 0 mm 2 mps 659 mmHg 47%
    04:00 +6°C° 0 mm 2 mps 659 mmHg 48%
    05:00 +7°C° 0 mm 2 mps 659 mmHg 46%
    06:00 +7°C° 0 mm 2 mps 660 mmHg 44%
    07:00 +8°C° 0 mm 2 mps 661 mmHg 41%
    08:00 +9°C° 0 mm 2 mps 661 mmHg 37%
    09:00 +12°C° 0 mm 2 mps 661 mmHg 33%
    10:00 +13°C° 0 mm 2 mps 662 mmHg 29%
    11:00 +14°C° 0 mm 2 mps 661 mmHg 28%
    12:00 +13°C° 0 mm 3 mps 661 mmHg 26%
    13:00 +14°C° 0 mm 3 mps 661 mmHg 25%
    14:00 +15°C° 0 mm 2 mps 661 mmHg 25%
    15:00 +15°C° 0 mm 2 mps 661 mmHg 25%
    16:00 +14°C° 0 mm 2 mps 661 mmHg 25%
    17:00 +13°C° 0 mm 1 mps 660 mmHg 28%
    18:00 +12°C° 0 mm 1 mps 660 mmHg 31%
    19:00 +10°C° 0 mm 1 mps 660 mmHg 34%
    20:00 +9°C° 0 mm 0 mps 660 mmHg 35%
    21:00 +8°C° 0 mm 0 mps 660 mmHg 36%
    22:00 +8°C° 0 mm 0 mps 659 mmHg 38%
    23:00 +7°C° 0 mm 0 mps 659 mmHg 39%

    20 October, Friday

    Time Temperature Precipitation Wind Pressure Humidity
    00:00 +8°C° 0 mm 1 mps 659 mmHg 39%
    01:00 +8°C° 0 mm 1 mps 658 mmHg 40%
    02:00 +7°C° 0 mm 1 mps 658 mmHg 42%
    03:00 +7°C° 0 mm 1 mps 657 mmHg 43%
    04:00 +7°C° 0 mm 1 mps 657 mmHg 44%
    05:00 +8°C° 0 mm 1 mps 657 mmHg 40%
    06:00 +9°C° 0 mm 1 mps 658 mmHg 37%
    07:00 +10°C° 0 mm 1 mps 658 mmHg 34%
    08:00 +12°C° 0 mm 1 mps 658 mmHg 30%
    09:00 +14°C° 0 mm 2 mps 659 mmHg 27%
    10:00 +16°C° 0 mm 2 mps 659 mmHg 23%
    11:00 +17°C° 0 mm 2 mps 659 mmHg 22%
    12:00 +18°C° 0 mm 3 mps 658 mmHg 21%
    13:00 +18°C° 0 mm 3 mps 658 mmHg 20%
    14:00 +18°C° 0 mm 3 mps 658 mmHg 21%
    15:00 +18°C° 0 mm 2 mps 657 mmHg 21%
    16:00 +17°C° 0 mm 2 mps 657 mmHg 22%
    17:00 +16°C° 0 mm 2 mps 657 mmHg 25%
    18:00 +14°C° 0 mm 1 mps 656 mmHg 29%
    19:00 +11°C° 0 mm 0 mps 656 mmHg 32%
    20:00 +10°C° 0 mm 0 mps 655 mmHg 33%
    21:00 +10°C° 0 mm 0 mps 655 mmHg 34%
    22:00 +9°C° 0 mm 0 mps 655 mmHg 35%
    23:00 +9°C° 0 mm 0 mps 655 mmHg 36%

    21 October, Saturday

    Time Temperature Precipitation Wind Pressure Humidity
    00:00 +9°C° 0 mm 0 mps 654 mmHg 38%
    01:00 +8°C° 0 mm 0 mps 654 mmHg 39%
    02:00 +8°C° 0 mm 0 mps 654 mmHg 40%
    03:00 +7°C° 0 mm 0 mps 653 mmHg 41%
    04:00 +7°C° 0 mm 0 mps 653 mmHg 42%
    05:00 +8°C° 0 mm 0 mps 654 mmHg 39%
    06:00 +9°C° 0 mm 0 mps 654 mmHg 35%
    07:00 +10°C° 0 mm 0 mps 655 mmHg 32%
    08:00 +13°C° 0 mm 1 mps 655 mmHg 28%
    09:00 +15°C° 0 mm 2 mps 656 mmHg 25%
    10:00 +17°C° 0 mm 2 mps 656 mmHg 21%
    11:00 +18°C° 0 mm 2 mps 656 mmHg 20%
    12:00 +19°C° 0 mm 3 mps 656 mmHg 19%
    13:00 +19°C° 0 mm 3 mps 655 mmHg 18%
    14:00 +19°C° 0 mm 3 mps 655 mmHg 19%
    15:00 +18°C° 0 mm 3 mps 655 mmHg 20%
    16:00 +18°C° 0 mm 3 mps 655 mmHg 20%
    17:00 +16°C° 0 mm 3 mps 655 mmHg 23%
    18:00 +14°C° 0 mm 2 mps 655 mmHg 25%
    19:00 +13°C° 0 mm 2 mps 655 mmHg 28%
    20:00 +12°C° 0 mm 2 mps 655 mmHg 29%
    21:00 +12°C° 0 mm 2 mps 655 mmHg 30%
    22:00 +10°C° 0 mm 2 mps 655 mmHg 31%
    23:00 +9°C° 0 mm 2 mps 655 mmHg 32%

    22 October, Sunday

    Time Temperature Precipitation Wind Pressure Humidity
    00:00 +10°C° 0 mm 1 mps 655 mmHg 34%
    01:00 +9°C° 0 mm 1 mps 654 mmHg 35%
    02:00 +9°C° 0 mm 1 mps 654 mmHg 36%
    03:00 +9°C° 0 mm 1 mps 654 mmHg 36%
    04:00 +8°C° 0 mm 1 mps 654 mmHg 37%
    05:00 +9°C° 0 mm 1 mps 655 mmHg 35%
    06:00 +10°C° 0 mm 1 mps 655 mmHg 33%
    07:00 +11°C° 0 mm 1 mps 656 mmHg 31%
    08:00 +12°C° 0 mm 2 mps 656 mmHg 28%
    09:00 +14°C° 0 mm 2 mps 657 mmHg 26%
    10:00 +15°C° 0 mm 2 mps 657 mmHg 23%
    11:00 +16°C° 0 mm 3 mps 656 mmHg 22%
    12:00 +17°C° 0 mm 3 mps 656 mmHg 21%
    13:00 +17°C° 0 mm 3 mps 656 mmHg 20%
    14:00 +17°C° 0 mm 3 mps 655 mmHg 21%
    15:00 +16°C° 0 mm 3 mps 655 mmHg 21%
    16:00 +16°C° 0 mm 2 mps 655 mmHg 22%
    17:00 +14°C° 0 mm 2 mps 655 mmHg 25%
    18:00 +13°C° 0 mm 1 mps 654 mmHg 28%
    19:00 +11°C° 0 mm 1 mps 654 mmHg 31%
    20:00 +11°C° 0 mm 1 mps 654 mmHg 32%
    21:00 +10°C° 0 mm 1 mps 654 mmHg 33%
    22:00 +8°C° 0 mm 0 mps 653 mmHg 34%
    23:00 +8°C° 0 mm 0 mps 653 mmHg 35%
    Show more